Погода в Семипалатинске

Погода в Семипалатинске : погода сейчас, прогноз погоды и архив. Всё, что Вы хотите узнать о погоде в Семипалатинске!

Хотите узнать прогноз погоды в Семипалатинске? Тогда Вам сюда: Погода в Семипалатинске

Поиск расширенной информации на нашем сайте:

Другие новости

Новости СМИ2

Главная страница сайта

Новости сайта

03.07.2017

Напоминаем, что на нашем специализированном сайте Метеоцентр.Азия вы можете получить высокодетализированные автоматические прогнозы погоды по пунктам России, СНГ и мира в авиационном формате (включающие направление и скорость ветра, видимость, явления погоды, количество и форму облачности, нижнюю и верхнюю границу облачности).

Рекомендуем: игры драки на http://proxgame.com

Погода в Семипалатинске - сегодня

Время (UTC), дата Ветер
(°,м/с) 
Видим.   Явления Облачность Т
(°С)
Тd
(°С)
f(%) Тe
(°С)
Pmin
(гПа)
dP
(гПа)
Po
(мм)
O2
(г/м3)
Тmin Tmax R s Состояние
почвы
00 16.04.18 230 (ЮЗ) 10 км    9/6 1000 м средняя 
[Sc|Ac trans]
+2.5 -2 72 +3  1010.6  -1.5  740  296           
03 16.04.18 180 (Ю) 10 км  слаб. ливневой дождь  9/9 600 м кучево-дожд. 
[Cb calv]
+5.5 -0.9 63 +5  1009.9  -0.4  740  292      0.0     
09 16.04.18 140 (ЮВ) 10 км  {ливн. осадки}  10/10 600 м кучево-дожд. 
[Cb calv]
+9.4 +5 74 +10  1009.3  0.3  739  287           
18 16.04.18 070 (В) н/о    ясно 
+5.6 -5 46 +6  1014.2  1.5  743  294    +12.9     
00 17.04.18 110 (В) 10 км    3/0 средняя 
[Ac trans]
+1.2 -2.3 77 +2  1016.3  0.8  744  299           
06 17.04.18 240 (ЮЗ) 10 км    9/4 1000 м средняя 
[Cu med, cong|Ac trans]
+12.5 -1.5 38 +12  1015.4  -0.3  744  287  -0.2         
09 17.04.18 260 (З) 10 км    9/6 1000 м средняя 
[Cu med, cong|Ac trans]
+12.5 -2.6 35 +12  1015  -0.4  744  287           
12 17.04.18 290 (З) 10 км    6/6 1000 м 
[Sc]
+12.2 -3.1 34 +12  1015.3  0.2  744  287           
15 17.04.18 360 (С) н/о    8/6 1000 м средняя 
[Sc|Ac trans]
+8.6 -0.6 52 +9  1016  0.4  744  291    +14.4       
18 17.04.18 020 (С) н/о    6/4 1000 м средняя 
[Sc|Ac trans]
+5.2 -2.6 57 +5  1016.5  0.2  744  295    +14.4       
21 17.04.18 050 (СВ) н/о    6/6 1000 м 
[Sc]
+2.9 -4.3 59 +1  1017.3  0.6  745  297           
00 18.04.18 360 (С) 10 км    10/10 600 м кучево-дожд. 
[Cb calv]
+0.6 -5.9 62 -2  1018.4  0.9  746  300           
09 18.04.18 340 (С) 10 км  {ливн. осадки}  9/6 1000 м средняя 
[Sc|Ac trans]
+5.9 -5.4 44 +5  1019.8  -0.3  747  295           
21 18.04.18 330 (СЗ) н/о    1/0 средняя 
[Ac trans]
-2.2 -7.3 68 -2  1021.1  -1.4  747  304           
00 19.04.18 040 (СВ) 10 км    10/10 1000 м 
[Sc]
+0 -4.6 71 -2  1017.1  -3.7  745  300           
03 19.04.18 090 (В) 10 км  {ливн. осадки}  10/10 600 м кучево-дожд. 
[Cb calv]
+2.3 +0.7 89 +1  1014.1  -2.8  742  297      0.7     
09 19.04.18 300 (СЗ) 4000 м  слаб. ливневой дождь  10/10 600 м кучево-дожд. 
[Cb calv]
+4.7 +2.7 87 +4  1013.1  0.3  742  293           
21 19.04.18 290 (З) н/о    6/3 1000 м средняя, верхняя 
[Sc|Ac trans|Ci fib]
-0.4 -1.6 92 1024.2  1.4  750  303           
03 20.04.18 250 (З) 4000 м  дымка  1/0 верхняя 
[Ci fib]
+2 -1.4 78 +3  1026.2  0.9  751  301           
06 20.04.18 200 (Ю) 10 км    6/6 1000 м 
[Cu med, cong]
+6.6 -4 47 +6  1025  -0.8  751  296  -1.9         
09 20.04.18 180 (Ю) 10 км    4/4 1000 м 
[Cu med, cong]
+10.2 -2 42 +9  1023.1  -1.5  750  291           
12 20.04.18 160 (Ю) 10 км    3/0 верхняя 
[Ci fib]
+11.4 -3.8 34 +11  1021.4  -1.6  748  290           
15 20.04.18 140 (ЮВ) н/о  дым  ясно 
+7.2 -3.4 47 +6  1021.2  -0.5  748  294    +12.1       
18 20.04.18 140 (ЮВ) н/о    ясно 
+2.9 -2.6 67 +2  1021.4  -0.2  748  298    +12.1       
21 20.04.18 130 (ЮВ) н/о    ясно 
+2.4 -2.5 70 +1  1020.4  -1  747  299           
Время (UTC), дата Ветер
(°,м/с) 
Видим.   Явления Облачность Т
(°С)
Тd
(°С)
f(%) Тe
(°С)
Pmin
(гПа)
dP
(гПа)
Po
(мм)
O2
(г/м3)
Тmin Tmax R s Состояние
почвы

Для получения пояснительной информации подведите курсор к названию столбца.

ПОГОДА в Семипалатинске - архив

Всё, что Вы хотите узнать о погоде в Семипалатинске - удобно и подробно!

Выберите нужную дату (начиная с 1 января 2015* года) и нажмите кнопку "Найти".
Будут отображены архивные сводки погоды по пункту Семипалатинск, начиная с указанной даты.


Отображать данные в формате CSV (для использования в таблицах Excel)


Внимание! Наш архив погоды предназначен исключительно для личного некоммерческого использования в познавательных целях. Если Вам необходимы официальные справки о состоянии погоды (для производственных, юридических, коммерческих и т.п. целей), обращайтесь в органы Росгидромета.

*Примечание: данная дата относится к архиву по метеостанциям СССР (Россия, СНГ, Балтия).
Архив по метеостанциям Зарубежной Европы и Азии (кроме Китая) хранится 10 дней, по другим регионам земного шара (Китай, Африка, Америка, Австралия, Океания) - 1 день.

Семипалатинск - район местоположения метеостанции


Название, широта, долгота, высота метеостанции:
Семипалатинск 50.4°ш. 80.3°д. 196 м над ур. моря [Казахстан]

Дополнительная информация

В oтличие oт бoльшинства пoгoдных сайтoв мы публикуем пoдрoбную метеoинфoрмацию в детальнoм прoфессиoнальнoм фoрмате.

Характеристики температуры и влажнoсти вoздуха измеряются на высoте 2 м в тени вдали oт зданий и деревьев.
Скoрoсть ветра измеряется на высoте 10 м (на урoвне рoста челoвека скoрoсть ветра ниже в 1.5-2 раза). Если метеoстанция нахoдится в гoрoде или в лесу, тo скoрoсть ветра занижена на 2-4 м/с пo сравнению с oткрытым местoм. Скoрoсть ветра над акватoриями крупных рек и oзёр, а также на вершинах хoлмoв на 2-5 м/с выше, чем в oбычных услoвиях.
Атмoсфернoе давление в разных тoчках местнoсти мoжет значительнo oтличаться oт давления на метеoстанции, в зависимoсти oт услoвий рельефа (при пoдъёме на 10 м давление пoнижается примернo на 1 мм рт.ст.).